Year,Month,Day,Hour,Minute,Value (Times are PST for temperature in C)
2015,02,28,08,04,5.70
2015,02,28,08,05,5.80
2015,02,28,08,06,5.80
2015,02,28,08,07,5.90
2015,02,28,08,08,5.90
2015,02,28,08,09,6.00
2015,02,28,08,10,6.00
2015,02,28,08,11,6.10
2015,02,28,08,12,6.10
2015,02,28,08,13,6.20
2015,02,28,08,14,6.20
2015,02,28,08,15,6.30
2015,02,28,08,16,6.30
2015,02,28,08,17,6.40
2015,02,28,08,18,6.50
2015,02,28,08,19,6.50
2015,02,28,08,20,6.60
2015,02,28,08,21,6.70
2015,02,28,08,22,6.70
2015,02,28,08,23,6.80
2015,02,28,08,24,6.80
2015,02,28,08,25,6.90
2015,02,28,08,26,7.00
2015,02,28,08,27,7.00
2015,02,28,08,28,7.10
2015,02,28,08,29,7.10
2015,02,28,08,30,7.20
2015,02,28,08,31,7.20
2015,02,28,08,32,7.20
2015,02,28,08,33,7.20
2015,02,28,08,34,7.20
2015,02,28,08,35,7.30
2015,02,28,08,36,7.30
2015,02,28,08,37,7.30
2015,02,28,08,38,7.30
2015,02,28,08,39,7.30
2015,02,28,08,40,7.30
2015,02,28,08,41,7.30
2015,02,28,08,42,7.40
2015,02,28,08,43,7.40
2015,02,28,08,44,7.40
2015,02,28,08,45,7.40
2015,02,28,08,46,7.50
2015,02,28,08,47,7.50
2015,02,28,08,48,7.60
2015,02,28,08,49,7.60
2015,02,28,08,50,7.60
2015,02,28,08,51,7.60
2015,02,28,08,52,7.70
2015,02,28,08,53,7.70
2015,02,28,08,54,7.70
2015,02,28,08,55,7.70
2015,02,28,08,56,7.70
2015,02,28,08,57,7.70
2015,02,28,08,58,7.70
2015,02,28,08,59,7.70
2015,02,28,09,00,7.80
2015,02,28,09,01,7.80
2015,02,28,09,02,7.80
2015,02,28,09,03,7.80
2015,02,28,09,04,7.80
2015,02,28,09,05,7.80
2015,02,28,09,06,7.80
2015,02,28,09,07,7.80
2015,02,28,09,08,7.80
2015,02,28,09,09,7.80
2015,02,28,09,10,7.80
2015,02,28,09,11,7.90
2015,02,28,09,12,7.90
2015,02,28,09,13,7.90
2015,02,28,09,14,7.90
2015,02,28,09,15,7.90
2015,02,28,09,16,8.00
2015,02,28,09,17,8.00
2015,02,28,09,18,8.00
2015,02,28,09,19,8.10
2015,02,28,09,20,8.10
2015,02,28,09,21,8.10
2015,02,28,09,22,8.20
2015,02,28,09,23,8.20
2015,02,28,09,24,8.20
2015,02,28,09,25,8.30
2015,02,28,09,26,8.30
2015,02,28,09,27,8.30
2015,02,28,09,28,8.40
2015,02,28,09,29,8.40
2015,02,28,09,30,8.40
2015,02,28,09,31,8.50
2015,02,28,09,32,8.50
2015,02,28,09,33,8.50
2015,02,28,09,34,8.60
2015,02,28,09,35,8.60
2015,02,28,09,36,8.60
2015,02,28,09,37,8.70
2015,02,28,09,38,8.70
2015,02,28,09,39,8.70
2015,02,28,09,40,8.70
2015,02,28,09,41,8.80
2015,02,28,09,42,8.80
2015,02,28,09,43,8.90
2015,02,28,09,44,8.90
2015,02,28,09,45,8.90
2015,02,28,09,46,8.90
2015,02,28,09,47,8.90
2015,02,28,09,48,9.00
2015,02,28,09,49,9.00
2015,02,28,09,50,9.10
2015,02,28,09,51,9.10
2015,02,28,09,52,9.10
2015,02,28,09,53,9.10
2015,02,28,09,54,9.10
2015,02,28,09,55,9.10
2015,02,28,09,56,9.10
2015,02,28,09,57,9.10
2015,02,28,09,58,9.10
2015,02,28,09,59,9.10
2015,02,28,10,00,9.10
2015,02,28,10,01,9.10
2015,02,28,10,02,9.10
2015,02,28,10,03,9.10
2015,02,28,10,04,9.10
2015,02,28,10,05,9.10
2015,02,28,10,06,9.10
2015,02,28,10,07,9.20
2015,02,28,10,08,9.20
2015,02,28,10,09,9.20
2015,02,28,10,10,9.30
2015,02,28,10,11,9.30
2015,02,28,10,12,9.30
2015,02,28,10,13,9.30
2015,02,28,10,14,9.30
2015,02,28,10,15,9.30
2015,02,28,10,16,9.40
2015,02,28,10,17,9.40
2015,02,28,10,18,9.40
2015,02,28,10,19,9.40
2015,02,28,10,20,9.50
2015,02,28,10,21,9.50
2015,02,28,10,22,9.60
2015,02,28,10,23,9.60
2015,02,28,10,24,9.60
2015,02,28,10,25,9.60
2015,02,28,10,26,9.60
2015,02,28,10,27,9.60
2015,02,28,10,28,9.60
2015,02,28,10,29,9.60
2015,02,28,10,30,9.60
2015,02,28,10,31,9.60
2015,02,28,10,32,9.60
2015,02,28,10,33,9.70
2015,02,28,10,34,9.70
2015,02,28,10,35,9.70
2015,02,28,10,36,9.70
2015,02,28,10,37,9.80
2015,02,28,10,38,9.80
2015,02,28,10,39,9.80
2015,02,28,10,40,9.80
2015,02,28,10,41,9.90
2015,02,28,10,42,9.90
2015,02,28,10,43,10.00
2015,02,28,10,44,10.00
2015,02,28,10,45,10.00
2015,02,28,10,46,10.00
2015,02,28,10,47,10.00
2015,02,28,10,48,10.00
2015,02,28,10,49,10.10
2015,02,28,10,50,10.10
2015,02,28,10,51,10.20
2015,02,28,10,52,10.20
2015,02,28,10,53,10.20
2015,02,28,10,54,10.20
2015,02,28,10,55,10.30
2015,02,28,10,56,10.30
2015,02,28,10,57,10.30
2015,02,28,10,58,10.30
2015,02,28,10,59,10.30
2015,02,28,11,00,10.30
2015,02,28,11,01,10.20
2015,02,28,11,02,10.20
2015,02,28,11,03,10.20
2015,02,28,11,04,10.20
2015,02,28,11,05,10.20
2015,02,28,11,06,10.20
2015,02,28,11,07,10.20
2015,02,28,11,08,10.20
2015,02,28,11,09,10.20
2015,02,28,11,10,10.20
2015,02,28,11,11,10.20
2015,02,28,11,12,10.10
2015,02,28,11,13,10.10
2015,02,28,11,14,10.10
2015,02,28,11,15,10.10
2015,02,28,11,16,10.10
2015,02,28,11,17,10.10
2015,02,28,11,18,10.20
2015,02,28,11,19,10.20
2015,02,28,11,20,10.30
2015,02,28,11,21,10.30
2015,02,28,11,22,10.30
2015,02,28,11,23,10.20
2015,02,28,11,24,10.20
2015,02,28,11,25,10.20
2015,02,28,11,26,10.20
2015,02,28,11,27,10.20
2015,02,28,11,28,10.20
2015,02,28,11,29,10.20
2015,02,28,11,30,10.20
2015,02,28,11,31,10.20
2015,02,28,11,32,10.30
2015,02,28,11,33,10.30
2015,02,28,11,34,10.30
2015,02,28,11,35,10.30
2015,02,28,11,36,10.30
2015,02,28,11,37,10.30
2015,02,28,11,38,10.30
2015,02,28,11,39,10.30
2015,02,28,11,40,10.30
2015,02,28,11,41,10.30
2015,02,28,11,42,10.30
2015,02,28,11,43,10.30
2015,02,28,11,44,10.30
2015,02,28,11,45,10.30
2015,02,28,11,46,10.20
2015,02,28,11,47,10.20
2015,02,28,11,48,10.20
2015,02,28,11,49,10.20
2015,02,28,11,50,10.20
2015,02,28,11,51,10.20
2015,02,28,11,52,10.30
2015,02,28,11,53,10.30
2015,02,28,11,54,10.30
2015,02,28,11,55,10.30
2015,02,28,11,56,10.30
2015,02,28,11,57,10.30
2015,02,28,11,58,10.30
2015,02,28,11,59,10.30
2015,02,28,12,00,10.30
2015,02,28,12,01,10.40
2015,02,28,12,02,10.40
2015,02,28,12,03,10.50
2015,02,28,12,04,10.50
2015,02,28,12,05,10.50
2015,02,28,12,06,10.50
2015,02,28,12,07,10.50
2015,02,28,12,08,10.50
2015,02,28,12,09,10.50
2015,02,28,12,10,10.50
2015,02,28,12,11,10.60
2015,02,28,12,12,10.50
2015,02,28,12,13,10.50
2015,02,28,12,14,10.50
2015,02,28,12,15,10.50
2015,02,28,12,16,10.50
2015,02,28,12,17,10.50
2015,02,28,12,18,10.50
2015,02,28,12,19,10.50
2015,02,28,12,20,10.60
2015,02,28,12,21,10.60
2015,02,28,12,22,10.70
2015,02,28,12,23,10.70
2015,02,28,12,24,10.80
2015,02,28,12,25,10.80
2015,02,28,12,26,10.80
2015,02,28,12,27,10.80
2015,02,28,12,28,10.80
2015,02,28,12,29,10.80
2015,02,28,12,30,10.70
2015,02,28,12,31,10.70
2015,02,28,12,32,10.60
2015,02,28,12,33,10.60
2015,02,28,12,34,10.60
2015,02,28,12,35,10.60
2015,02,28,12,36,10.60
2015,02,28,12,37,10.60
2015,02,28,12,38,10.70
2015,02,28,12,39,10.60
2015,02,28,12,40,10.70
2015,02,28,12,41,10.70
2015,02,28,12,42,10.70
2015,02,28,12,43,10.80
2015,02,28,12,44,10.80
2015,02,28,12,45,10.80
2015,02,28,12,46,10.80
2015,02,28,12,47,10.80
2015,02,28,12,48,10.90
2015,02,28,12,49,10.90
2015,02,28,12,50,10.90
2015,02,28,12,51,11.00
2015,02,28,12,52,11.00
2015,02,28,12,53,10.90
2015,02,28,12,54,10.90
2015,02,28,12,55,10.90
2015,02,28,12,56,10.80
2015,02,28,12,57,10.70
2015,02,28,12,58,10.70
2015,02,28,12,59,10.70
2015,02,28,13,00,10.70
2015,02,28,13,01,10.80
2015,02,28,13,02,10.80
2015,02,28,13,03,10.90
2015,02,28,13,04,10.90
2015,02,28,13,05,10.90
2015,02,28,13,06,11.00
2015,02,28,13,07,11.00
2015,02,28,13,08,11.00
2015,02,28,13,09,11.10
2015,02,28,13,10,11.10
2015,02,28,13,11,11.00
2015,02,28,13,12,11.00
2015,02,28,13,13,11.00
2015,02,28,13,14,10.90
2015,02,28,13,15,10.90
2015,02,28,13,16,11.00
2015,02,28,13,17,10.90
2015,02,28,13,18,10.90
2015,02,28,13,19,10.90
2015,02,28,13,20,10.90
2015,02,28,13,21,10.80
2015,02,28,13,22,10.80
2015,02,28,13,23,10.80
2015,02,28,13,24,10.80
2015,02,28,13,25,10.90
2015,02,28,13,26,10.90
2015,02,28,13,27,11.00
2015,02,28,13,28,11.00
2015,02,28,13,29,11.10
2015,02,28,13,30,11.20
2015,02,28,13,31,11.10
2015,02,28,13,32,11.10
2015,02,28,13,33,11.10
2015,02,28,13,34,11.10
2015,02,28,13,35,11.20
2015,02,28,13,36,11.20
2015,02,28,13,37,11.20
2015,02,28,13,38,11.20
2015,02,28,13,39,11.20
2015,02,28,13,40,11.10
2015,02,28,13,41,11.10
2015,02,28,13,42,11.10
2015,02,28,13,43,11.10
2015,02,28,13,44,11.10
2015,02,28,13,45,11.10
2015,02,28,13,46,11.10
2015,02,28,13,47,11.10
2015,02,28,13,48,11.10
2015,02,28,13,49,11.10
2015,02,28,13,50,11.10
2015,02,28,13,51,11.10
2015,02,28,13,52,11.20
2015,02,28,13,53,11.20
2015,02,28,13,54,11.20
2015,02,28,13,55,11.10
2015,02,28,13,56,10.90
2015,02,28,13,57,10.70
2015,02,28,13,58,10.60
2015,02,28,13,59,10.50
2015,02,28,14,00,10.50
2015,02,28,14,01,10.50
2015,02,28,14,02,10.60
2015,02,28,14,03,10.60
2015,02,28,14,04,10.60
2015,02,28,14,05,10.60
2015,02,28,14,06,10.60
2015,02,28,14,07,10.60
2015,02,28,14,08,10.60
2015,02,28,14,09,10.60
2015,02,28,14,10,10.60
2015,02,28,14,11,10.60
2015,02,28,14,12,10.50
2015,02,28,14,13,10.50
2015,02,28,14,14,10.50
2015,02,28,14,15,10.50
2015,02,28,14,16,10.50
2015,02,28,14,17,10.40
2015,02,28,14,18,10.50
2015,02,28,14,19,10.50
2015,02,28,14,20,10.60
2015,02,28,14,21,10.60
2015,02,28,14,22,10.60
2015,02,28,14,23,10.70
2015,02,28,14,24,10.70
2015,02,28,14,25,10.70
2015,02,28,14,26,10.80
2015,02,28,14,27,10.80
2015,02,28,14,28,10.80
2015,02,28,14,29,10.80
2015,02,28,14,30,10.80
2015,02,28,14,31,10.80
2015,02,28,14,32,10.90
2015,02,28,14,33,11.00
2015,02,28,14,34,11.10
2015,02,28,14,35,11.20
2015,02,28,14,36,11.30
2015,02,28,14,37,11.40
2015,02,28,14,38,11.50
2015,02,28,14,39,11.60
2015,02,28,14,40,11.70
2015,02,28,14,41,11.70
2015,02,28,14,42,11.70
2015,02,28,14,43,11.60
2015,02,28,14,44,11.60
2015,02,28,14,45,11.60
2015,02,28,14,46,11.60
2015,02,28,14,47,11.60
2015,02,28,14,48,11.70
2015,02,28,14,49,11.60
2015,02,28,14,50,11.60
2015,02,28,14,51,11.60
2015,02,28,14,52,11.60
2015,02,28,14,53,11.60
2015,02,28,14,54,11.60
2015,02,28,14,55,11.60
2015,02,28,14,56,11.70
2015,02,28,14,57,11.70
2015,02,28,14,58,11.70
2015,02,28,14,59,11.80
2015,02,28,15,00,11.80
2015,02,28,15,01,11.80
2015,02,28,15,02,11.90
2015,02,28,15,03,12.00
2015,02,28,15,04,12.00
2015,02,28,15,05,12.10
2015,02,28,15,06,12.10
2015,02,28,15,07,12.10
2015,02,28,15,08,12.20
2015,02,28,15,09,12.20
2015,02,28,15,10,12.20
2015,02,28,15,11,12.20
2015,02,28,15,12,12.30
2015,02,28,15,13,12.30
2015,02,28,15,14,12.30
2015,02,28,15,15,12.30
2015,02,28,15,16,12.30
2015,02,28,15,17,12.30
2015,02,28,15,18,12.30
2015,02,28,15,19,12.30
2015,02,28,15,20,12.30
2015,02,28,15,21,12.20
2015,02,28,15,22,12.10
2015,02,28,15,23,11.90
2015,02,28,15,24,11.70
2015,02,28,15,25,11.60
2015,02,28,15,26,11.50
2015,02,28,15,27,11.40
2015,02,28,15,28,11.30
2015,02,28,15,29,11.20
2015,02,28,15,30,11.10
2015,02,28,15,31,11.00
2015,02,28,15,32,10.90
2015,02,28,15,33,10.90
2015,02,28,15,34,10.90
2015,02,28,15,35,10.90
2015,02,28,15,36,11.00
2015,02,28,15,37,11.00
2015,02,28,15,38,11.10
2015,02,28,15,39,11.10
2015,02,28,15,40,11.20
2015,02,28,15,41,11.20
2015,02,28,15,42,11.20
2015,02,28,15,43,11.20
2015,02,28,15,44,11.20
2015,02,28,15,45,11.30
2015,02,28,15,46,11.30
2015,02,28,15,47,11.40
2015,02,28,15,48,11.40
2015,02,28,15,49,11.50
2015,02,28,15,50,11.60
2015,02,28,15,51,11.60
2015,02,28,15,52,11.70
2015,02,28,15,53,11.70
2015,02,28,15,54,11.70
2015,02,28,15,55,11.80
2015,02,28,15,56,11.80
2015,02,28,15,57,11.90
2015,02,28,15,58,12.00
2015,02,28,15,59,12.10
2015,02,28,16,00,12.10
2015,02,28,16,01,12.20
2015,02,28,16,02,12.30
2015,02,28,16,03,12.30
2015,02,28,16,04,12.40
2015,02,28,16,05,12.40
2015,02,28,16,06,12.50
2015,02,28,16,07,12.50
2015,02,28,16,08,12.50
2015,02,28,16,09,12.60
2015,02,28,16,10,12.60
2015,02,28,16,11,12.60
2015,02,28,16,12,12.60
2015,02,28,16,13,12.70
2015,02,28,16,14,12.70
2015,02,28,16,15,12.80
2015,02,28,16,16,12.80
2015,02,28,16,17,12.80
2015,02,28,16,18,12.80
2015,02,28,16,19,12.80
2015,02,28,16,20,12.80
2015,02,28,16,21,12.90
2015,02,28,16,22,12.90
2015,02,28,16,23,12.90
2015,02,28,16,24,13.00
2015,02,28,16,25,13.10
2015,02,28,16,26,13.10
2015,02,28,16,27,13.10
2015,02,28,16,28,13.20
2015,02,28,16,29,13.20
2015,02,28,16,30,13.20
2015,02,28,16,31,13.10
2015,02,28,16,32,13.10
2015,02,28,16,33,13.10
2015,02,28,16,34,13.00
2015,02,28,16,35,12.90
2015,02,28,16,36,12.80
2015,02,28,16,37,12.70
2015,02,28,16,38,12.50
2015,02,28,16,39,12.40
2015,02,28,16,40,12.20
2015,02,28,16,41,12.10
2015,02,28,16,42,12.00
2015,02,28,16,43,11.90
2015,02,28,16,44,11.80
2015,02,28,16,45,11.80
2015,02,28,16,46,11.70
2015,02,28,16,47,11.60
2015,02,28,16,48,11.50
2015,02,28,16,49,11.30
2015,02,28,16,50,11.20
2015,02,28,16,51,11.10
2015,02,28,16,52,11.00
2015,02,28,16,53,11.00
2015,02,28,16,54,10.90
2015,02,28,16,55,10.90
2015,02,28,16,56,10.90
2015,02,28,16,57,10.80
2015,02,28,16,58,10.80
2015,02,28,16,59,10.70
2015,02,28,17,00,10.70
2015,02,28,17,01,10.60
2015,02,28,17,02,10.50
2015,02,28,17,03,10.40
2015,02,28,17,04,10.40
2015,02,28,17,05,10.30
2015,02,28,17,06,10.30
2015,02,28,17,07,10.20
2015,02,28,17,08,10.20
2015,02,28,17,09,10.20
2015,02,28,17,10,10.20
2015,02,28,17,11,10.20
2015,02,28,17,12,10.20
2015,02,28,17,13,10.10
2015,02,28,17,14,10.10
2015,02,28,17,15,10.10
2015,02,28,17,16,10.10
2015,02,28,17,17,10.10
2015,02,28,17,18,10.10
2015,02,28,17,19,10.10
2015,02,28,17,20,10.10
2015,02,28,17,21,10.10
2015,02,28,17,22,10.10
2015,02,28,17,23,10.10
2015,02,28,17,24,10.10
2015,02,28,17,25,10.00
2015,02,28,17,26,10.10
2015,02,28,17,27,10.10
2015,02,28,17,28,10.00
2015,02,28,17,29,10.00
2015,02,28,17,30,10.00
2015,02,28,17,31,10.00
2015,02,28,17,32,10.00
2015,02,28,17,33,10.00
2015,02,28,17,34,9.90
2015,02,28,17,35,9.90
2015,02,28,17,36,9.90
2015,02,28,17,37,9.90
2015,02,28,17,38,9.90
2015,02,28,17,39,9.90
2015,02,28,17,40,9.90
2015,02,28,17,41,9.90
2015,02,28,17,42,9.90
2015,02,28,17,43,9.90
2015,02,28,17,44,9.90
2015,02,28,17,45,9.90
2015,02,28,17,46,9.90
2015,02,28,17,47,9.90
2015,02,28,17,48,9.90
2015,02,28,17,49,9.90
2015,02,28,17,50,9.90
2015,02,28,17,51,9.90
2015,02,28,17,52,9.90
